[[{"header":{"parameterUnit":"m.s-1","parameterCategory":1,"la1":30.2991,"la2":30.254,"lo1":-89.0895,"lo2":-89.0444,"dy":0.0017,"dx":0.0017,"nx":28,"ny":28,"refTime":"2025-02-26T03:00:00:Z","depth":0,"parameterNumber":2,"parameterNumberName":"U-component_of_WINDS"},"data":[0,0,0,0,0,0,0,0,0,0,0,0,0,0,0,0,0,0,0,0,0,0,0,0,0,0,0,0,0,0,0,0,0,0,0,0,0,0,0,0,0,0,0,0,0,0,0,0,0,0,0,0,0,0,0,0,0,0,-0.3588,-0.3588,0,-0.3564,-0.3564,-0.3564,-0.3548,-0.3547,-0.3547,-0.3547,-0.3521,-0.3521,-0.352,0,0,0,0,0,0,0,0,0,0,0,0,0,-0.3617,-0.3617,-0.3588,-0.3588,-0.3587,-0.3564,-0.3564,-0.3564,-0.3548,-0.3547,-0.3547,-0.3547,-0.3522,-0.3521,-0.352,0,0,0,0,0,0,0,0,0,0,0,0,0,-0.36,-0.3617,-0.3588,-0.3576,-0.3575,-0.3564,-0.3564,-0.3564,-0.3548,-0.3547,-0.3547,-0.3547,-0.3522,-0.3521,-0.352,-0.3518,0,0,-0.3517,-0.3517,0,0,0,0,0,0,0,0,-0.3601,-0.3599,-0.3578,-0.3577,-0.3576,-0.3559,-0.3565,-0.3548,-0.3548,-0.3558,-0.3547,-0.3547,-0.3534,-0.3532,-0.3528,-0.3517,-0.3516,-0.3517,-0.3517,-0.3517,-0.3516,0,0,0,0,0,0,0,-0.3602,-0.36,-0.3578,-0.3578,-0.3577,-0.3572,-0.3569,-0.3562,-0.3547,-0.3557,-0.3556,-0.3553,-0.3533,-0.3529,-0.3527,-0.3516,-0.3517,-0.3517,-0.3516,-0.3516,-0.3502,-0.3502,0,0,0,0,0,0,-0.3605,-0.3601,-0.3579,-0.3578,-0.3588,-0.3572,-0.3569,-0.3564,-0.3547,-0.3544,-0.3554,-0.3553,-0.353,-0.3528,-0.3526,-0.3523,-0.3517,-0.3516,-0.3515,-0.3502,-0.3502,-0.3502,0,0,0,0,0,0,-0.3606,-0.3604,-0.358,-0.3589,-0.3586,-0.3571,-0.3567,-0.3564,-0.356,-0.3545,-0.3542,-0.3552,-0.353,-0.3527,-0.3521,-0.3522,-0.3515,-0.3515,-0.3502,-0.3502,-0.3502,-0.3516,0,0,0,0,0,0,-0.3607,-0.3604,-0.3604,-0.3589,-0.3585,-0.3575,-0.3567,-0.3564,-0.3558,-0.3557,-0.3542,-0.354,-0.353,-0.3522,-0.352,-0.352,-0.3514,-0.3501,-0.3502,-0.3502,-0.3515,-0.3517,-0.3518,0,0,0,0,0,-0.3608,-0.3608,-0.3604,-0.3601,-0.3585,-0.3575,-0.3573,-0.3562,-0.3559,-0.3558,-0.3548,-0.354,-0.3522,-0.3521,-0.3519,-0.3519,-0.3501,-0.3502,-0.3502,-0.3515,-0.3516,-0.3518,0,0,0,0,0,0,-0.3622,-0.3606,-0.3601,-0.3596,-0.3587,-0.3573,-0.3571,-0.3564,-0.3556,-0.3555,-0.3541,-0.3538,-0.3533,-0.3525,-0.3525,-0.3516,-0.3511,-0.3511,-0.3521,-0.3523,-0.3524,-0.3526,-0.3513,0,0,0,0,0,-0.3625,-0.3619,-0.3605,-0.3602,-0.3598,-0.3586,-0.3581,-0.3574,-0.3564,-0.356,-0.355,-0.354,-0.3532,-0.3527,-0.3519,-0.3514,-0.3511,-0.3513,-0.3515,-0.3516,-0.3516,-0.3512,-0.3513,-0.3503,-0.3503,-0.3503,0,0,-0.363,-0.362,-0.3618,-0.3605,-0.3597,-0.3591,-0.3583,-0.3577,-0.3572,-0.3559,-0.3552,-0.3544,-0.3532,-0.3527,-0.3523,-0.352,-0.3518,-0.3516,-0.3517,-0.3516,-0.3513,-0.3514,-0.3515,-0.3504,-0.3503,-0.3503,0,0,-0.3636,-0.3629,-0.3625,-0.3618,-0.3607,-0.3599,-0.3598,-0.3584,-0.3579,-0.3572,-0.3562,-0.3556,-0.3543,-0.3535,-0.3529,-0.3533,-0.3525,-0.353,-0.3537,-0.3534,-0.3534,-0.3535,-0.3536,-0.3537,-0.353,-0.353,-0.353,0,-0.3644,-0.3635,-0.3625,-0.3619,-0.3614,-0.3603,-0.3599,-0.3592,-0.3579,-0.3575,-0.3572,-0.3555,-0.3546,-0.3538,-0.3539,-0.3535,-0.3534,-0.3532,-0.3535,-0.3536,-0.3536,-0.3537,-0.3537,-0.3531,-0.3531,-0.3531,-0.3531,0,-0.3645,-0.3639,-0.3638,-0.3626,-0.362,-0.3616,-0.3604,-0.36,-0.3593,-0.3585,-0.3578,-0.3567,-0.3556,-0.3554,-0.3547,-0.3545,-0.3543,-0.3538,-0.3532,-0.3538,-0.3539,-0.3539,-0.3532,-0.3532,-0.3532,-0.3532,0,0,-0.3658,-0.3641,-0.3641,-0.3635,-0.3622,-0.3617,-0.3612,-0.3603,-0.3599,-0.359,-0.3585,-0.3575,-0.357,-0.3563,-0.3555,-0.3553,-0.3556,-0.3548,-0.3547,-0.3549,-0.3553,-0.3557,-0.3558,-0.3551,-0.3551,-0.3551,-0.3554,0,-0.3662,-0.3654,-0.3644,-0.3638,-0.3633,-0.3622,-0.3618,-0.3609,-0.3601,-0.3595,-0.3586,-0.3579,-0.3573,-0.3569,-0.3566,-0.3557,-0.3557,-0.3556,-0.3546,-0.3546,-0.3549,-0.3558,-0.3562,-0.3565,-0.3554,-0.3554,-0.3554,0,-0.3666,-0.3658,-0.3652,-0.364,-0.3637,-0.3633,-0.3624,-0.3618,-0.3608,-0.3603,-0.3596,-0.3587,-0.3581,-0.3576,-0.3567,-0.3567,-0.3563,-0.3557,-0.3557,-0.3555,-0.355,-0.3556,-0.3566,-0.3566,-0.3555,-0.3555,-0.3555,0,-0.3676,-0.3664,-0.3659,-0.3654,-0.364,-0.3638,-0.3632,-0.3621,-0.3616,-0.3608,-0.3604,-0.3595,-0.359,-0.3583,-0.3572,-0.357,-0.3564,-0.3559,-0.3559,-0.3559,-0.3558,-0.3558,-0.3567,-0.3556,-0.3556,-0.3556,-0.3556,0,-0.3681,-0.3677,-0.3663,-0.366,-0.3656,-0.3645,-0.3641,-0.3634,-0.3625,-0.3619,-0.361,-0.3605,-0.3591,-0.3585,-0.3576,-0.357,-0.3568,-0.3563,-0.3561,-0.3563,-0.3564,-0.356,-0.3559,-0.3556,-0.3556,-0.3556,-0.3556,0,-0.3691,-0.3682,-0.3675,-0.3663,-0.3659,-0.3657,-0.3645,-0.3642,-0.3634,-0.3627,-0.3625,-0.3613,-0.3604,-0.3593,-0.3581,-0.3576,-0.357,-0.3567,-0.3574,-0.3573,-0.3574,-0.3573,-0.3579,-0.3579,-0.3569,-0.3569,-0.3569,0,-0.3695,-0.3692,-0.3679,-0.3675,-0.367,-0.3664,-0.3659,-0.3648,-0.3643,-0.3631,-0.3629,-0.362,-0.3612,-0.36,-0.3589,-0.358,-0.3576,-0.3579,-0.3575,-0.3578,-0.3576,-0.3576,-0.3575,-0.358,-0.358,-0.358,-0.358,0,-0.3702,-0.3698,-0.3691,-0.3683,-0.3677,-0.367,-0.3663,-0.366,-0.3647,-0.3642,-0.3634,-0.3628,-0.3617,-0.3608,-0.3598,-0.3591,-0.3583,-0.3582,-0.3581,-0.3584,-0.3588,-0.3585,-0.3576,-0.3581,-0.3581,-0.3581,-0.3581,-0.3581,-0.3709,-0.3706,-0.3697,-0.3689,-0.3683,-0.3676,-0.3672,-0.3664,-0.3657,-0.3647,-0.3641,-0.3633,-0.3623,-0.3609,-0.3602,-0.3595,-0.3592,-0.3592,-0.3592,-0.3592,-0.3592,-0.359,-0.3594,-0.3594,-0.3593,-0.3593,-0.3593,0,-0.3715,-0.3709,-0.3703,-0.3693,-0.3687,-0.3682,-0.3673,-0.3668,-0.3662,-0.3653,-0.3646,-0.3637,-0.3629,-0.3618,-0.3608,-0.3605,-0.3602,-0.3603,-0.3603,-0.3601,-0.3596,-0.3597,-0.3606,-0.3606,-0.3606,-0.3606,-0.3606,-0.3606,-0.3718,-0.3712,-0.3707,-0.3698,-0.3692,-0.3684,-0.368,-0.3673,-0.3667,-0.3657,-0.365,-0.3643,-0.3634,-0.3624,-0.3616,-0.3613,-0.361,-0.3612,-0.3608,-0.3603,-0.3602,-0.3601,-0.3602,-0.3612,-0.3612,-0.3614,-0.3614,-0.3614]},{"header":{"parameterUnit":"m.s-1","parameterCategory":1,"la1":30.2991,"la2":30.254,"lo1":-89.0895,"lo2":-89.0444,"dy":0.0017,"dx":0.0017,"nx":28,"ny":28,"refTime":"2025-02-26T03:00:00:Z","depth":0,"parameterNumber":3,"parameterNumberName":"V-component_of_WINDS"},"data":[0,0,0,0,0,0,0,0,0,0,0,0,0,0,0,0,0,0,0,0,0,0,0,0,0,0,0,0,0,0,0,0,0,0,0,0,0,0,0,0,0,0,0,0,0,0,0,0,0,0,0,0,0,0,0,0,0,0,1.5321,1.5321,0,1.53,1.53,1.53,1.535,1.5351,1.5353,1.5354,1.5329,1.5327,1.5325,0,0,0,0,0,0,0,0,0,0,0,0,0,1.5401,1.5399,1.5321,1.5321,1.5321,1.53,1.53,1.53,1.5349,1.5351,1.5353,1.5355,1.533,1.5327,1.5325,0,0,0,0,0,0,0,0,0,0,0,0,0,1.5372,1.5399,1.5321,1.5343,1.5345,1.53,1.53,1.53,1.5349,1.5351,1.5354,1.5356,1.5331,1.5328,1.5324,1.5257,0,0,1.5314,1.5313,0,0,0,0,0,0,0,0,1.5373,1.5369,1.534,1.5341,1.5343,1.533,1.5319,1.5285,1.5348,1.5347,1.5354,1.5357,1.5327,1.5324,1.5315,1.5256,1.5254,1.5314,1.5312,1.5311,1.531,0,0,0,0,0,0,0,1.5375,1.537,1.5313,1.534,1.5342,1.5353,1.5351,1.5313,1.5324,1.5347,1.5351,1.5348,1.5329,1.5318,1.5315,1.5254,1.5314,1.5311,1.5309,1.5308,1.5138,1.5136,0,0,0,0,0,0,1.5375,1.5371,1.5314,1.5312,1.5365,1.535,1.5348,1.5332,1.5325,1.5326,1.5346,1.535,1.5322,1.5319,1.5314,1.5235,1.5311,1.5308,1.5306,1.5141,1.5138,1.5135,0,0,0,0,0,0,1.5377,1.5369,1.5314,1.5343,1.5337,1.5346,1.5327,1.533,1.532,1.5324,1.5325,1.5334,1.5324,1.5319,1.5271,1.5235,1.5306,1.5303,1.5144,1.514,1.5136,1.5076,0,0,0,0,0,0,1.5379,1.537,1.5345,1.5342,1.5335,1.5272,1.5325,1.5328,1.5315,1.532,1.5312,1.5313,1.5326,1.5276,1.5268,1.5232,1.5301,1.5147,1.5142,1.5138,1.5081,1.507,1.5061,0,0,0,0,0,1.5381,1.5327,1.5343,1.5336,1.5304,1.527,1.5266,1.5282,1.5312,1.5286,1.5289,1.5314,1.524,1.527,1.5262,1.5224,1.515,1.5144,1.5138,1.5085,1.5072,1.5061,0,0,0,0,0,0,1.5324,1.5327,1.5345,1.5289,1.5279,1.5279,1.5247,1.5268,1.5248,1.5254,1.5274,1.5272,1.5221,1.5218,1.5251,1.5159,1.52,1.5192,1.5163,1.515,1.514,1.5142,1.5298,0,0,0,0,0,1.5305,1.5279,1.5282,1.5232,1.5227,1.5237,1.5223,1.5237,1.5227,1.5223,1.5222,1.521,1.5185,1.5167,1.5144,1.5081,1.508,1.5051,1.5041,1.5033,1.5026,1.4993,1.498,1.5116,1.5116,1.5116,0,0,1.5266,1.5264,1.5246,1.5221,1.5215,1.5186,1.5234,1.5201,1.5179,1.5217,1.5173,1.5171,1.516,1.5104,1.508,1.51,1.4988,1.5025,1.5019,1.5016,1.4985,1.4972,1.4961,1.5112,1.5113,1.5113,0,0,1.5178,1.5175,1.5133,1.5126,1.5117,1.5125,1.5115,1.5111,1.5113,1.5068,1.5097,1.5071,1.5026,1.5017,1.5007,1.4917,1.4939,1.4909,1.4856,1.4824,1.4813,1.4804,1.4772,1.476,1.4902,1.4901,1.4901,0,1.513,1.5088,1.5108,1.5074,1.5062,1.5097,1.5055,1.5047,1.503,1.502,1.5044,1.499,1.4984,1.4927,1.4906,1.4896,1.4884,1.4909,1.4813,1.4804,1.4795,1.4765,1.4753,1.4898,1.4898,1.4899,1.4899,0,1.5029,1.5,1.4967,1.4951,1.4936,1.4897,1.4911,1.4893,1.4908,1.4913,1.4867,1.4862,1.4839,1.4826,1.484,1.4771,1.4784,1.481,1.4852,1.4779,1.475,1.4739,1.4893,1.4894,1.4895,1.4896,0,0,1.4904,1.4902,1.4889,1.4883,1.4876,1.4853,1.4816,1.4795,1.4778,1.4766,1.4735,1.4697,1.4721,1.4709,1.4722,1.4694,1.4623,1.4723,1.4723,1.4705,1.4547,1.4528,1.4514,1.4638,1.4636,1.4634,1.4548,0,1.4819,1.4757,1.4774,1.4712,1.4685,1.4718,1.4686,1.4677,1.4681,1.4658,1.4662,1.4635,1.4669,1.4662,1.4635,1.4637,1.4592,1.4644,1.4609,1.4607,1.4611,1.4499,1.4479,1.4398,1.4537,1.4535,1.4534,0,1.471,1.4695,1.463,1.4628,1.4617,1.4588,1.457,1.4548,1.4539,1.4544,1.4531,1.455,1.4513,1.4555,1.4504,1.4539,1.4526,1.4525,1.4522,1.4519,1.4566,1.4494,1.4372,1.436,1.4517,1.4518,1.452,0,1.4626,1.4589,1.4546,1.4539,1.4536,1.4515,1.4512,1.4506,1.4492,1.4476,1.4467,1.4446,1.4434,1.4417,1.443,1.446,1.4377,1.442,1.4379,1.4379,1.436,1.4361,1.4235,1.4351,1.4352,1.4352,1.4352,0,1.4528,1.4487,1.4508,1.4481,1.4436,1.4457,1.4411,1.4412,1.4406,1.438,1.4407,1.4381,1.44,1.4375,1.4385,1.4341,1.4335,1.4338,1.4341,1.4335,1.4335,1.4327,1.4333,1.4349,1.4349,1.435,1.4351,0,1.4427,1.4439,1.4394,1.4395,1.4394,1.4361,1.4362,1.4337,1.4343,1.4309,1.4302,1.4311,1.4284,1.4295,1.4266,1.4273,1.4217,1.4227,1.422,1.4223,1.4181,1.4185,1.4045,1.4028,1.4156,1.4154,1.4153,0,1.4363,1.4333,1.4331,1.4316,1.4312,1.4287,1.4274,1.4292,1.4277,1.4265,1.4241,1.4217,1.4198,1.4153,1.4156,1.4134,1.4144,1.4097,1.4141,1.4137,1.4144,1.4145,1.4142,1.4088,1.4086,1.4085,1.4084,0,1.425,1.4258,1.4238,1.422,1.4204,1.419,1.4179,1.4165,1.4183,1.4164,1.4138,1.4123,1.4095,1.407,1.405,1.4047,1.4068,1.4071,1.406,1.4054,1.4051,1.4052,1.4196,1.4073,1.4075,1.4075,1.4076,1.4076,1.4166,1.414,1.4136,1.4113,1.4107,1.4096,1.4072,1.4076,1.4055,1.4034,1.4046,1.4015,1.4007,1.3983,1.3977,1.3952,1.3971,1.3955,1.3951,1.3947,1.3942,1.4055,1.3949,1.3949,1.3949,1.3949,1.395,0,1.4054,1.4053,1.4031,1.4016,1.3997,1.4021,1.401,1.3993,1.3966,1.3957,1.3939,1.3908,1.3884,1.3886,1.3864,1.3844,1.3854,1.3838,1.3839,1.3838,1.3926,1.3938,1.3831,1.3831,1.3831,1.3831,1.3831,1.3831,1.3993,1.3952,1.3959,1.3915,1.3914,1.3885,1.3877,1.3867,1.386,1.3825,1.3806,1.3808,1.3804,1.3782,1.3761,1.3762,1.3753,1.3733,1.3738,1.382,1.3832,1.3843,1.3854,1.3731,1.3731,1.3652,1.3651,1.3651]}]]